GLONASS-K 2

Last updated on Feb. 23, 2020, 4:52 a.m. UTC

1 40315U 14075A   20053.83273127  .00000045  00000-0  00000+0 0  9991
2 40315  63.9356 270.8747 0014883 205.9097 100.7629  2.13098533 40708
UTC
Height (km)
Latitude
Longitude
Inclination
Orbital Period
UTC large
Height (km)
Speed (km/s)
/
Latitude / Longitude
Inclination (degrees)
Orbital Period (minutes)
Azimuth
Elevation
Range (km)
Doppler Factor
iOS Compass Heading
iOS Angle

Next 30 passes for location: Hong Kong

Rise time Rise Azimuth (degrees) Set time Set Azimuth (degrees) Duration Max altitude (degrees)

No matching passes for this satellites